| time (UTC) | temp F | wind direction | speed MPH | gust MPH | rain 1hr in | rain 24hr in | rain mn in | humidity % | barometer mb |
| 20260504024002 | 55 | 238 | 2.0 | 3.0 | 0.00 | 0.00 | 0.06 | 74 | 1008.9 |
| 20260504023501 | 55 | 179 | 2.0 | 4.0 | 0.00 | 0.00 | 0.06 | 73 | 1008.8 |
| 20260504023002 | 55 | 253 | 2.0 | 3.0 | 0.00 | 0.00 | 0.06 | 73 | 1009.0 |
| 20260504022502 | 56 | 260 | 2.0 | 3.0 | 0.00 | 0.00 | 0.06 | 73 | 1008.6 |
| 20260504022002 | 56 | 226 | 3.0 | 3.0 | 0.00 | 0.00 | 0.06 | 72 | 1008.8 |
| 20260504021501 | 56 | 195 | 2.0 | 3.0 | 0.00 | 0.00 | 0.06 | 72 | 1008.8 |
| 20260504021002 | 57 | 255 | 2.0 | 3.0 | 0.00 | 0.00 | 0.06 | 71 | 1008.8 |
| 20260504020502 | 57 | 218 | 2.0 | 3.0 | 0.00 | 0.00 | 0.06 | 70 | 1008.7 |
| 20260504020002 | 57 | 246 | 1.0 | 3.0 | 0.00 | 0.00 | 0.06 | 70 | 1008.5 |
| 20260504015502 | 57 | 260 | 2.0 | 3.0 | 0.00 | 0.00 | 0.06 | 69 | 1008.5 |
| 20260504015002 | 58 | 252 | 2.0 | 4.0 | 0.00 | 0.00 | 0.06 | 69 | 1008.5 |
| 20260504014502 | 58 | 229 | 3.0 | 3.0 | 0.00 | 0.00 | 0.06 | 69 | 1008.4 |
| 20260504014002 | 58 | 243 | 2.0 | 3.0 | 0.00 | 0.00 | 0.06 | 69 | 1008.4 |
| 20260504013502 | 58 | 236 | 2.0 | 3.0 | 0.00 | 0.00 | 0.06 | 68 | 1008.4 |
| 20260504013002 | 58 | 258 | 1.0 | 2.0 | 0.00 | 0.00 | 0.06 | 67 | 1008.4 |
| 20260504012502 | 58 | 275 | 2.0 | 3.0 | 0.00 | 0.00 | 0.06 | 66 | 1008.4 |
| 20260504012001 | 59 | 277 | 1.0 | 3.0 | 0.00 | 0.00 | 0.06 | 66 | 1008.2 |
| 20260504011502 | 60 | 255 | 1.0 | 2.0 | 0.00 | 0.00 | 0.06 | 64 | 1008.4 |
| 20260504011002 | 60 | 277 | 1.0 | 3.0 | 0.00 | 0.00 | 0.06 | 63 | 1008.3 |
| 20260504010501 | 61 | 252 | 2.0 | 3.0 | 0.00 | 0.00 | 0.06 | 61 | 1008.2 |
| 20260504010002 | 61 | 269 | 2.0 | 4.0 | 0.00 | 0.00 | 0.06 | 61 | 1008.1 |
| 20260504005502 | 62 | 194 | 2.0 | 3.0 | 0.00 | 0.00 | 0.06 | 60 | 1008.3 |
| 20260504005002 | 62 | 241 | 2.0 | 5.0 | 0.00 | 0.00 | 0.06 | 59 | 1008.4 |
| 20260504004501 | 62 | 252 | 3.0 | 4.0 | 0.00 | 0.00 | 0.06 | 58 | 1008.3 |
| 20260504004002 | 63 | 274 | 2.0 | 3.0 | 0.00 | 0.00 | 0.06 | 58 | 1008.5 |
| 20260504003502 | 63 | 243 | 3.0 | 4.0 | 0.00 | 0.00 | 0.06 | 56 | 1008.3 |
| 20260504003002 | 64 | 241 | 2.0 | 7.0 | 0.00 | 0.00 | 0.06 | 56 | 1008.4 |
| 20260504002501 | 64 | 282 | 2.0 | 4.0 | 0.00 | 0.00 | 0.06 | 55 | 1008.3 |
| 20260504002002 | 64 | 284 | 2.0 | 3.0 | 0.00 | 0.00 | 0.06 | 55 | 1008.3 |
| 20260504001502 | 64 | 229 | 4.0 | 7.0 | 0.00 | 0.00 | 0.06 | 54 | 1008.2 |
| 20260504001002 | 65 | 273 | 3.0 | 6.0 | 0.00 | 0.00 | 0.06 | 53 | 1008.2 |
| 20260504000501 | 65 | 231 | 4.0 | 9.0 | 0.00 | 0.00 | 0.06 | 52 | 1008.5 |
| 20260504000002 | 65 | 248 | 5.0 | 9.0 | 0.00 | 0.00 | 0.06 | 52 | 1008.5 |
| 20260503235502 | 66 | 226 | 4.0 | 10.0 | 0.00 | 0.06 | 0.06 | 51 | 1008.5 |
| 20260503235002 | 66 | 208 | 6.0 | 13.0 | 0.00 | 0.06 | 0.06 | 51 | 1008.2 |
| 20260503234502 | 66 | 274 | 2.0 | 10.0 | 0.00 | 0.06 | 0.06 | 51 | 1008.5 |
| 20260503234002 | 66 | 271 | 2.0 | 7.0 | 0.00 | 0.00 | 0.06 | 50 | 1008.5 |
| 20260503233501 | 66 | 256 | 3.0 | 7.0 | 0.00 | 0.00 | 0.06 | 50 | 1008.2 |
| 20260503233002 | 66 | 227 | 4.0 | 10.0 | 0.00 | 0.00 | 0.06 | 51 | 1008.5 |
| 20260503232502 | 66 | 248 | 5.0 | 10.0 | 0.00 | 0.00 | 0.06 | 49 | 1008.4 |
| 20260503232002 | 66 | 267 | 4.0 | 6.0 | 0.00 | 0.00 | 0.06 | 51 | 1008.4 |
| 20260503231501 | 66 | 257 | 4.0 | 7.0 | 0.00 | 0.00 | 0.06 | 50 | 1008.8 |
| 20260503231002 | 66 | 201 | 4.0 | 9.0 | 0.00 | 0.00 | 0.06 | 50 | 1008.5 |
| 20260503230502 | 66 | 199 | 4.0 | 11.0 | 0.00 | 0.00 | 0.06 | 51 | 1008.4 |
| 20260503230001 | 66 | 271 | 4.0 | 12.0 | 0.00 | 0.00 | 0.06 | 51 | 1008.7 |
| 20260503225502 | 65 | 232 | 7.0 | 12.0 | 0.00 | 0.00 | 0.06 | 53 | 1008.6 |
| 20260503225002 | 64 | 196 | 4.0 | 7.0 | 0.00 | 0.00 | 0.06 | 53 | 1008.6 |
| 20260503224502 | 65 | 230 | 7.0 | 12.0 | 0.00 | 0.00 | 0.06 | 51 | 1008.8 |
| 20260503224002 | 66 | 180 | 6.0 | 11.0 | 0.00 | 0.00 | 0.06 | 51 | 1008.9 |
| 20260503223502 | 66 | 173 | 4.0 | 7.0 | 0.00 | 0.00 | 0.06 | 50 | 1008.8 |
| 20260503223002 | 64 | 279 | 5.0 | 7.0 | 0.00 | 0.00 | 0.06 | 51 | 1009.3 |
| 20260503222502 | 64 | 225 | 5.0 | 7.0 | 0.00 | 0.00 | 0.06 | 52 | 1009.3 |
| 20260503222002 | 64 | 233 | 2.0 | 7.0 | 0.00 | 0.00 | 0.06 | 53 | 1009.2 |
| 20260503221502 | 64 | 191 | 5.0 | 13.0 | 0.00 | 0.00 | 0.06 | 52 | 1009.2 |
| 20260503221002 | 64 | 210 | 6.0 | 10.0 | 0.00 | 0.00 | 0.06 | 53 | 1009.2 |
| 20260503220502 | 64 | 228 | 4.0 | 9.0 | 0.00 | 0.00 | 0.06 | 53 | 1009.3 |
| 20260503220003 | 64 | 187 | 6.0 | 12.0 | 0.00 | 0.00 | 0.06 | 52 | 1009.3 |
| 20260503215501 | 65 | 194 | 5.0 | 13.0 | 0.00 | 0.00 | 0.06 | 51 | 1009.2 |
| 20260503215002 | 64 | 179 | 10.0 | 14.0 | 0.00 | 0.00 | 0.06 | 51 | 1009.4 |
| 20260503214502 | 63 | 267 | 5.0 | 10.0 | 0.00 | 0.00 | 0.06 | 53 | 1009.6 |
| 20260503214002 | 63 | 255 | 5.0 | 10.0 | 0.00 | 0.00 | 0.06 | 53 | 1009.4 |
| 20260503213502 | 63 | 150 | 6.0 | 13.0 | 0.00 | 0.00 | 0.06 | 52 | 1009.5 |
| 20260503213002 | 63 | 230 | 9.0 | 14.0 | 0.00 | 0.00 | 0.06 | 51 | 1009.8 |
| 20260503212502 | 63 | 186 | 7.0 | 12.0 | 0.00 | 0.00 | 0.06 | 51 | 1009.9 |
| 20260503212002 | 63 | 173 | 7.0 | 12.0 | 0.00 | 0.00 | 0.06 | 51 | 1009.8 |
| 20260503211501 | 63 | 218 | 4.0 | 6.0 | 0.00 | 0.00 | 0.06 | 51 | 1010.0 |
| 20260503211002 | 63 | 188 | 6.0 | 7.0 | 0.00 | 0.00 | 0.06 | 51 | 1010.3 |
| 20260503210502 | 63 | 170 | 6.0 | 13.0 | 0.00 | 0.00 | 0.06 | 51 | 1010.4 |
| 20260503210002 | 63 | 183 | 7.0 | 11.0 | 0.00 | 0.00 | 0.06 | 50 | 1010.3 |
| 20260503205502 | 64 | 154 | 6.0 | 11.0 | 0.00 | 0.00 | 0.06 | 50 | 1010.1 |
| 20260503205002 | 64 | 271 | 6.0 | 11.0 | 0.00 | 0.00 | 0.06 | 49 | 1010.3 |
| 20260503204502 | 63 | 194 | 10.0 | 13.0 | 0.00 | 0.00 | 0.06 | 50 | 1010.5 |
| 20260503204002 | 62 | 241 | 4.0 | 10.0 | 0.00 | 0.00 | 0.06 | 51 | 1010.6 |
| 20260503203502 | 62 | 203 | 7.0 | 14.0 | 0.00 | 0.00 | 0.06 | 51 | 1010.5 |
| 20260503203002 | 62 | 183 | 6.0 | 12.0 | 0.00 | 0.00 | 0.06 | 50 | 1010.6 |
| 20260503202502 | 63 | 234 | 6.0 | 15.0 | 0.00 | 0.00 | 0.06 | 49 | 1010.8 |
| 20260503202002 | 65 | 178 | 12.0 | 14.0 | 0.00 | 0.00 | 0.06 | 47 | 1010.9 |
| 20260503201502 | 66 | 190 | 6.0 | 15.0 | 0.00 | 0.00 | 0.06 | 48 | 1010.9 |
| 20260503201001 | 65 | 201 | 6.0 | 13.0 | 0.00 | 0.00 | 0.06 | 50 | 1010.7 |
| 20260503200502 | 63 | 160 | 11.0 | 15.0 | 0.00 | 0.00 | 0.06 | 48 | 1010.7 |
| 20260503200002 | 63 | 174 | 9.0 | 15.0 | 0.00 | 0.00 | 0.06 | 49 | 1011.1 |
| 20260503195502 | 62 | 239 | 10.0 | 13.0 | 0.00 | 0.00 | 0.06 | 50 | 1011.2 |
| 20260503195002 | 63 | 199 | 11.0 | 18.0 | 0.00 | 0.00 | 0.06 | 48 | 1011.1 |
| 20260503194501 | 64 | 191 | 7.0 | 10.0 | 0.00 | 0.00 | 0.06 | 51 | 1011.1 |
| 20260503194002 | 64 | 209 | 5.0 | 14.0 | 0.00 | 0.00 | 0.06 | 50 | 1011.2 |
| 20260503193502 | 63 | 209 | 7.0 | 19.0 | 0.00 | 0.00 | 0.06 | 50 | 1011.3 |
| 20260503193002 | 64 | 227 | 8.0 | 13.0 | 0.00 | 0.00 | 0.06 | 50 | 1011.7 |
| 20260503192501 | 63 | 180 | 5.0 | 14.0 | 0.00 | 0.00 | 0.06 | 51 | 1011.5 |
| 20260503192002 | 62 | 191 | 7.0 | 10.0 | 0.00 | 0.00 | 0.06 | 53 | 1011.7 |
| 20260503191502 | 62 | 173 | 7.0 | 14.0 | 0.00 | 0.00 | 0.06 | 53 | 1011.5 |
| 20260503191002 | 62 | 202 | 5.0 | 13.0 | 0.00 | 0.00 | 0.06 | 54 | 1011.6 |
| 20260503190502 | 62 | 258 | 6.0 | 13.0 | 0.00 | 0.00 | 0.06 | 55 | 1011.9 |
| 20260503190002 | 62 | 195 | 11.0 | 18.0 | 0.00 | 0.00 | 0.06 | 53 | 1012.0 |
| 20260503185502 | 62 | 211 | 8.0 | 12.0 | 0.00 | 0.00 | 0.06 | 59 | 1011.9 |
| 20260503185002 | 60 | 203 | 9.0 | 11.0 | 0.00 | 0.00 | 0.06 | 61 | 1012.2 |
| 20260503184502 | 60 | 212 | 4.0 | 13.0 | 0.00 | 0.00 | 0.06 | 65 | 1012.5 |
| 20260503184002 | 59 | 206 | 4.0 | 12.0 | 0.00 | 0.00 | 0.06 | 67 | 1012.3 |
| 20260503183502 | 59 | 221 | 5.0 | 7.0 | 0.00 | 0.00 | 0.06 | 71 | 1012.2 |
| 20260503183002 | 58 | 173 | 5.0 | 10.0 | 0.00 | 0.00 | 0.06 | 72 | 1012.5 |
| 20260503182502 | 57 | 249 | 3.0 | 7.0 | 0.00 | 0.00 | 0.06 | 75 | 1012.2 |
| 20260503182002 | 56 | 256 | 4.0 | 11.0 | 0.00 | 0.00 | 0.06 | 75 | 1012.8 |
| 20260503181502 | 54 | 195 | 4.0 | 6.0 | 0.00 | 0.00 | 0.06 | 77 | 1013.1 |
| 20260503181002 | 53 | 142 | 3.0 | 6.0 | 0.00 | 0.00 | 0.06 | 78 | 1013.3 |
| 20260503180501 | 51 | 255 | 4.0 | 6.0 | 0.00 | 0.00 | 0.06 | 80 | 1013.3 |
| 20260503180002 | 50 | 217 | 3.0 | 9.0 | 0.00 | 0.00 | 0.06 | 80 | 1013.8 |
| 20260503175502 | 50 | 291 | 3.0 | 5.0 | 0.00 | 0.00 | 0.06 | 81 | 1014.0 |
| 20260503175002 | 50 | 164 | 4.0 | 7.0 | 0.00 | 0.00 | 0.06 | 81 | 1014.2 |
| 20260503174502 | 50 | 273 | 4.0 | 7.0 | 0.00 | 0.00 | 0.06 | 80 | 1014.6 |
| 20260503174002 | 50 | 166 | 4.0 | 10.0 | 0.00 | 0.00 | 0.06 | 81 | 1014.9 |
| 20260503173502 | 50 | 214 | 3.0 | 5.0 | 0.00 | 0.00 | 0.06 | 81 | 1015.2 |
| 20260503173002 | 50 | 248 | 2.0 | 6.0 | 0.00 | 0.00 | 0.06 | 82 | 1015.0 |
| 20260503172502 | 50 | 258 | 3.0 | 9.0 | 0.00 | 0.00 | 0.06 | 82 | 1015.4 |
| 20260503172002 | 50 | 271 | 1.0 | 4.0 | 0.04 | 0.00 | 0.06 | 87 | 1015.2 |
| 20260503171502 | 50 | 280 | 1.0 | 4.0 | 0.04 | 0.00 | 0.06 | 86 | 1015.4 |
| 20260503171002 | 50 | 211 | 2.0 | 3.0 | 0.00 | 0.00 | 0.05 | 86 | 1015.5 |
| 20260503170502 | 50 | 245 | 3.0 | 7.0 | 0.00 | 0.00 | 0.05 | 86 | 1015.3 |
| 20260503151002 | 53 | 244 | 3.0 | 5.0 | 0.00 | 0.00 | 0.00 | 66 | 1016.3 |
| 20260503150502 | 53 | 232 | 5.0 | 11.0 | 0.00 | 0.00 | 0.00 | 65 | 1016.1 |
| 20260503131001 | 49 | 215 | 6.0 | 10.0 | 0.00 | 0.00 | 0.00 | 70 | 1016.9 |
| 20260503130502 | 49 | 205 | 4.0 | 9.0 | 0.00 | 0.00 | 0.00 | 70 | 1017.0 |
| 20260503110502 | 43 | 259 | 3.0 | 6.0 | 0.00 | 0.00 | 0.00 | 73 | 1016.6 |
| 20260503090502 | 41 | 251 | 2.0 | 3.0 | 0.00 | 0.00 | 0.00 | 74 | 1016.9 |
| 20260503081502 | 42 | 244 | 2.0 | 3.0 | 0.00 | 0.00 | 0.00 | 71 | 1017.3 |
| 20260503081002 | 42 | 256 | 2.0 | 4.0 | 0.00 | 0.00 | 0.00 | 71 | 1017.2 |
| 20260503080501 | 42 | 260 | 2.0 | 3.0 | 0.00 | 0.00 | 0.00 | 71 | 1017.1 |
| 20260503072502 | 42 | 245 | 2.0 | 5.0 | 0.00 | 0.00 | 0.00 | 70 | 1017.1 |
| 20260503072002 | 42 | 266 | 2.0 | 4.0 | 0.00 | 0.00 | 0.00 | 70 | 1017.3 |
| 20260503071501 | 42 | 227 | 4.0 | 5.0 | 0.00 | 0.00 | 0.00 | 70 | 1017.3 |
| 20260503071002 | 42 | 267 | 2.0 | 3.0 | 0.00 | 0.00 | 0.00 | 70 | 1017.3 |
| 20260503070502 | 42 | 216 | 3.0 | 3.0 | 0.00 | 0.00 | 0.00 | 70 | 1017.3 |
| 20260503055002 | 43 | 272 | 1.0 | 3.0 | 0.00 | 0.00 | 0.00 | 69 | 1017.9 |
| 20260503054502 | 43 | 220 | 2.0 | 3.0 | 0.00 | 0.00 | 0.00 | 69 | 1018.0 |
| 20260503054002 | 43 | 261 | 2.0 | 4.0 | 0.00 | 0.00 | 0.00 | 68 | 1017.9 |
| 20260503053502 | 43 | 274 | 1.0 | 3.0 | 0.00 | 0.00 | 0.00 | 68 | 1018.0 |
| 20260503053001 | 43 | 264 | 2.0 | 3.0 | 0.00 | 0.00 | 0.00 | 68 | 1018.3 |
| 20260503052502 | 43 | 269 | 2.0 | 4.0 | 0.00 | 0.00 | 0.00 | 69 | 1018.2 |
| 20260503052002 | 43 | 263 | 2.0 | 3.0 | 0.00 | 0.00 | 0.00 | 69 | 1018.1 |
| 20260503051501 | 43 | 274 | 1.0 | 3.0 | 0.00 | 0.00 | 0.00 | 69 | 1018.1 |
| 20260503051002 | 43 | 271 | 1.0 | 3.0 | 0.00 | 0.00 | 0.00 | 69 | 1018.3 |
| 20260503050502 | 43 | 259 | 1.0 | 4.0 | 0.00 | 0.00 | 0.00 | 70 | 1018.3 |
| 20260503050002 | 43 | 257 | 2.0 | 3.0 | 0.00 | 0.00 | 0.00 | 70 | 1018.4 |
| 20260503045502 | 43 | 267 | 2.0 | 2.0 | 0.00 | 0.00 | 0.00 | 71 | 1018.5 |
| 20260503045002 | 43 | 255 | 2.0 | 2.0 | 0.00 | 0.00 | 0.00 | 71 | 1018.3 |
| 20260503044502 | 43 | 262 | 2.0 | 3.0 | 0.00 | 0.00 | 0.00 | 72 | 1018.3 |
| 20260503044001 | 43 | 243 | 2.0 | 3.0 | 0.00 | 0.00 | 0.00 | 71 | 1018.2 |
| 20260503043502 | 43 | 267 | 1.0 | 2.0 | 0.00 | 0.00 | 0.00 | 70 | 1018.4 |
| 20260503043002 | 43 | 265 | 2.0 | 2.0 | 0.00 | 0.00 | 0.00 | 71 | 1018.4 |
| 20260503042501 | 43 | 268 | 1.0 | 2.0 | 0.00 | 0.00 | 0.00 | 70 | 1018.2 |
| 20260503042002 | 43 | 267 | 1.0 | 3.0 | 0.00 | 0.00 | 0.00 | 70 | 1018.5 |
| 20260503041502 | 43 | 276 | 1.0 | 2.0 | 0.00 | 0.00 | 0.00 | 71 | 1018.4 |
| 20260503041002 | 43 | 262 | 1.0 | 2.0 | 0.00 | 0.00 | 0.00 | 71 | 1018.3 |
| 20260503040502 | 43 | 266 | 1.0 | 3.0 | 0.00 | 0.00 | 0.00 | 71 | 1018.3 |
| 20260503040001 | 43 | 262 | 1.0 | 2.0 | 0.00 | 0.00 | 0.00 | 71 | 1018.2 |
| 20260503035502 | 43 | 260 | 2.0 | 3.0 | 0.00 | 0.00 | 0.00 | 70 | 1018.4 |
| 20260503035002 | 43 | 271 | 1.0 | 4.0 | 0.00 | 0.00 | 0.00 | 70 | 1018.4 |
| 20260503034502 | 43 | 263 | 2.0 | 3.0 | 0.00 | 0.00 | 0.00 | 70 | 1018.4 |
| 20260503034002 | 43 | 264 | 1.0 | 2.0 | 0.00 | 0.00 | 0.00 | 70 | 1018.4 |
| 20260503033502 | 44 | 252 | 2.0 | 3.0 | 0.00 | 0.00 | 0.00 | 71 | 1018.2 |
| 20260503033002 | 44 | 264 | 1.0 | 3.0 | 0.00 | 0.00 | 0.00 | 70 | 1018.6 |
| 20260503032501 | 44 | 250 | 2.0 | 3.0 | 0.00 | 0.00 | 0.00 | 70 | 1018.4 |
| 20260503032002 | 44 | 259 | 2.0 | 3.0 | 0.00 | 0.00 | 0.00 | 69 | 1018.3 |
| 20260503031502 | 44 | 264 | 2.0 | 2.0 | 0.00 | 0.00 | 0.00 | 69 | 1018.6 |
| 20260503031001 | 44 | 251 | 1.0 | 3.0 | 0.00 | 0.00 | 0.00 | 68 | 1018.6 |
| 20260503030503 | 45 | 234 | 2.0 | 3.0 | 0.00 | 0.00 | 0.00 | 68 | 1018.4 |
| 20260503030002 | 45 | 270 | 1.0 | 3.0 | 0.00 | 0.00 | 0.00 | 68 | 1018.8 |
| 20260503025502 | 45 | 252 | 1.0 | 3.0 | 0.00 | 0.00 | 0.00 | 67 | 1018.7 |
| 20260503025002 | 45 | 264 | 1.0 | 2.0 | 0.00 | 0.00 | 0.00 | 67 | 1018.6 |
| 20260503024502 | 45 | 222 | 2.0 | 3.0 | 0.00 | 0.00 | 0.00 | 67 | 1018.9 |